TimeCDT,TemperatureF,Dew PointF,Humidity,Sea Level PressureIn,VisibilityMPH,Wind Direction,Wind SpeedMPH,Gust SpeedMPH,PrecipitationIn,Events,Conditions,WindDirDegrees,DateUTC
12:15 AM,64.4,56.3,75,30.04,10.0,Calm,Calm,-,N/A,,Clear,0,2013-06-14 05:15:00
12:35 AM,63.3,56.7,79,30.04,10.0,NNE,3.5,-,N/A,,Clear,30,2013-06-14 05:35:00
12:55 AM,62.8,57.7,84,30.04,10.0,NNE,6.9,-,N/A,,Scattered Clouds,30,2013-06-14 05:55:00
1:15 AM,62.2,57.7,85,30.03,10.0,NNE,8.1,-,N/A,,Scattered Clouds,30,2013-06-14 06:15:00
1:35 AM,62.6,57.6,84,30.03,10.0,NNE,6.9,-,N/A,,Clear,30,2013-06-14 06:35:00
1:55 AM,62.6,57.6,84,30.03,10.0,North,5.8,-,N/A,,Scattered Clouds,10,2013-06-14 06:55:00
2:15 AM,63.7,58.1,82,30.04,10.0,Calm,Calm,-,N/A,,Mostly Cloudy,0,2013-06-14 07:15:00
2:35 AM,64.9,57.7,77,30.03,10.0,NE,5.8,-,N/A,,Overcast,50,2013-06-14 07:35:00
2:55 AM,65.3,57.9,77,30.03,10.0,ENE,5.8,-,N/A,,Overcast,70,2013-06-14 07:55:00
3:15 AM,65.3,56.8,74,30.00,10.0,NE,5.8,-,N/A,,Mostly Cloudy,50,2013-06-14 08:15:00
3:35 AM,64.4,57.0,77,30.00,10.0,ENE,5.8,-,N/A,,Clear,70,2013-06-14 08:35:00
3:55 AM,64.4,56.7,76,29.99,10.0,East,9.2,-,N/A,,Clear,80,2013-06-14 08:55:00
4:15 AM,63.9,56.5,77,29.98,10.0,East,8.1,-,N/A,,Scattered Clouds,100,2013-06-14 09:15:00
4:35 AM,64.4,56.5,75,29.96,10.0,East,5.8,-,N/A,,Scattered Clouds,100,2013-06-14 09:35:00
4:55 AM,64.4,56.7,76,29.97,10.0,SSE,3.5,-,N/A,,Clear,150,2013-06-14 09:55:00
5:15 AM,64.8,56.5,74,29.98,10.0,SSE,5.8,-,N/A,,Clear,150,2013-06-14 10:15:00
5:35 AM,65.1,56.5,74,29.97,10.0,SE,9.2,-,N/A,,Clear,130,2013-06-14 10:35:00
5:55 AM,66.4,56.3,70,29.97,10.0,SE,9.2,-,N/A,,Scattered Clouds,130,2013-06-14 10:55:00
6:15 AM,67.1,56.3,68,29.98,10.0,SSE,6.9,-,N/A,,Scattered Clouds,160,2013-06-14 11:15:00
6:35 AM,67.1,56.7,69,29.97,10.0,SE,9.2,-,N/A,,Scattered Clouds,130,2013-06-14 11:35:00
6:55 AM,66.6,57.2,72,29.97,10.0,ESE,9.2,-,N/A,,Clear,120,2013-06-14 11:55:00
7:15 AM,67.1,57.9,72,29.97,10.0,ESE,9.2,-,N/A,Rain,Light Rain,110,2013-06-14 12:15:00
7:35 AM,66.9,57.9,73,29.98,10.0,SE,9.2,-,N/A,,Light Drizzle,130,2013-06-14 12:35:00
7:55 AM,67.1,58.1,73,29.96,10.0,ESE,10.4,-,N/A,,Overcast,120,2013-06-14 12:55:00
8:15 AM,67.5,58.6,73,29.96,10.0,SE,9.2,-,N/A,,Mostly Cloudy,130,2013-06-14 13:15:00
8:35 AM,68.0,58.8,72,29.97,10.0,SE,9.2,-,N/A,,Overcast,130,2013-06-14 13:35:00
8:55 AM,68.5,59.9,74,29.96,10.0,ESE,11.5,-,N/A,Thunderstorm,Mostly Cloudy,120,2013-06-14 13:55:00
9:15 AM,69.3,60.3,73,29.96,10.0,ESE,10.4,-,N/A,,Scattered Clouds,120,2013-06-14 14:15:00
9:35 AM,69.8,60.4,72,29.93,10.0,ESE,18.4,-,N/A,,Clear,120,2013-06-14 14:35:00
9:55 AM,70.9,61.2,71,29.91,10.0,ESE,16.1,27.6,N/A,,Clear,120,2013-06-14 14:55:00
10:15 AM,71.6,61.3,70,29.89,10.0,SE,20.7,28.8,N/A,,Clear,130,2013-06-14 15:15:00
10:35 AM,72.1,61.7,70,29.88,10.0,SE,19.6,27.6,N/A,,Clear,130,2013-06-14 15:35:00
10:55 AM,72.9,62.1,69,29.88,10.0,SE,20.7,28.8,N/A,,Clear,130,2013-06-14 15:55:00
11:15 AM,73.6,62.1,67,29.91,10.0,SE,17.3,23.0,N/A,,Scattered Clouds,140,2013-06-14 16:15:00
11:35 AM,73.9,62.2,67,29.93,10.0,SE,15.0,24.2,N/A,,Scattered Clouds,140,2013-06-14 16:35:00
11:55 AM,75.0,63.0,66,29.93,10.0,SE,17.3,23.0,N/A,,Clear,130,2013-06-14 16:55:00
12:15 PM,75.9,63.1,64,29.92,10.0,SE,16.1,21.9,N/A,,Clear,140,2013-06-14 17:15:00
12:35 PM,75.4,63.3,66,29.92,10.0,SE,17.3,27.6,N/A,,Clear,140,2013-06-14 17:35:00
12:55 PM,75.2,63.7,67,29.91,10.0,SE,16.1,26.5,N/A,,Clear,130,2013-06-14 17:55:00
1:15 PM,75.9,64.0,67,29.89,10.0,SE,17.3,27.6,N/A,,Clear,140,2013-06-14 18:15:00
1:35 PM,77.0,64.6,65,29.88,10.0,SE,21.9,29.9,N/A,Thunderstorm,Clear,130,2013-06-14 18:35:00
1:55 PM,77.4,64.9,65,29.87,10.0,SE,19.6,27.6,N/A,,Clear,130,2013-06-14 18:55:00
2:15 PM,79.2,65.5,63,29.88,10.0,SE,13.8,29.9,N/A,Thunderstorm,Thunderstorm,140,2013-06-14 19:15:00
2:35 PM,80.6,65.5,60,29.88,10.0,SE,20.7,27.6,N/A,,Clear,140,2013-06-14 19:35:00
2:55 PM,81.7,65.8,58,29.87,10.0,SE,19.6,26.5,N/A,,Clear,130,2013-06-14 19:55:00
3:15 PM,81.9,65.8,58,29.86,10.0,SE,23.0,28.8,N/A,,Clear,130,2013-06-14 20:15:00
3:35 PM,82.4,66.0,57,29.85,10.0,SE,17.3,27.6,N/A,,Clear,140,2013-06-14 20:35:00
3:55 PM,82.4,66.2,58,29.85,10.0,SE,18.4,26.5,N/A,,Clear,130,2013-06-14 20:55:00
4:15 PM,83.5,66.4,56,29.84,10.0,SE,16.1,23.0,N/A,,Clear,140,2013-06-14 21:15:00
4:35 PM,84.2,66.6,55,29.84,10.0,SE,17.3,23.0,N/A,,Clear,130,2013-06-14 21:35:00
4:55 PM,85.6,67.3,54,29.83,10.0,ESE,17.3,20.7,N/A,,Clear,120,2013-06-14 21:55:00
5:15 PM,85.5,67.1,54,29.83,10.0,ESE,16.1,26.5,N/A,,Clear,120,2013-06-14 22:15:00
5:35 PM,86.0,67.6,54,29.82,10.0,ESE,15.0,24.2,N/A,,Scattered Clouds,120,2013-06-14 22:35:00
5:55 PM,85.3,67.6,55,29.82,10.0,ESE,17.3,-,N/A,,Mostly Cloudy,110,2013-06-14 22:55:00
6:15 PM,84.2,67.3,57,29.81,10.0,ESE,16.1,24.2,N/A,,Scattered Clouds,120,2013-06-14 23:15:00
6:35 PM,83.8,67.3,57,29.81,10.0,ESE,18.4,21.9,N/A,,Clear,110,2013-06-14 23:35:00
6:55 PM,82.8,66.7,58,29.79,10.0,ESE,16.1,-,N/A,,Clear,110,2013-06-14 23:55:00
7:15 PM,82.4,66.2,58,29.80,10.0,ESE,15.0,25.3,N/A,,Clear,120,2013-06-15 00:15:00
7:35 PM,81.5,66.0,59,29.80,10.0,ESE,21.9,26.5,N/A,,Clear,120,2013-06-15 00:35:00
7:55 PM,80.8,65.5,59,29.81,10.0,SE,21.9,26.5,N/A,,Clear,130,2013-06-15 00:55:00
8:15 PM,80.1,65.3,61,29.80,10.0,ESE,21.9,27.6,N/A,Thunderstorm,Thunderstorm,120,2013-06-15 01:15:00
8:35 PM,79.9,65.7,62,29.83,10.0,SE,17.3,23.0,N/A,Thunderstorm,Thunderstorm,130,2013-06-15 01:35:00
8:55 PM,65.7,62.8,90,29.96,1.5,SW,3.5,26.5,0.34,Rain-Thunderstorm,Heavy Thunderstorms and Rain,220,2013-06-15 01:55:00
9:15 PM,66.6,64.2,92,29.97,7.0,SW,6.9,-,0.06,Rain-Thunderstorm,Heavy Thunderstorms and Rain,220,2013-06-15 02:15:00
9:35 PM,67.5,63.9,88,29.94,10.0,ESE,8.1,-,0.08,Rain-Thunderstorm,Light Thunderstorms and Rain,120,2013-06-15 02:35:00
9:55 PM,67.1,63.5,88,29.91,10.0,ESE,6.9,-,0.09,Thunderstorm,Unknown,120,2013-06-15 02:55:00
10:15 PM,66.7,63.9,90,29.88,10.0,SSE,5.8,-,N/A,,Clear,160,2013-06-15 03:15:00
10:35 PM,67.1,63.9,89,29.89,10.0,SE,8.1,-,N/A,Thunderstorm,Clear,140,2013-06-15 03:35:00
10:55 PM,68.2,63.3,84,29.90,10.0,Calm,Calm,-,N/A,,Clear,0,2013-06-15 03:55:00
11:15 PM,68.5,63.3,83,29.86,10.0,SE,6.9,-,N/A,,Clear,140,2013-06-15 04:15:00
11:35 PM,68.2,63.1,84,29.82,10.0,ESE,5.8,-,N/A,Rain,Light Rain,120,2013-06-15 04:35:00
11:55 PM,67.6,64.0,88,29.84,10.0,SSE,18.4,24.2,N/A,,Clear,160,2013-06-15 04:55:00